[Date Prev][Date Next][Thread Prev][Thread Next] - [Date Index][Thread Index][Author Index]
2 Line ISS Keps & Pcsat 2-2
- Subject: [sarex] 2 Line ISS Keps & Pcsat 2-2
- From: "Dave Larsen PhD" <doc@xxxxxxxxxxx>
- Date: Tue, 1 Feb 2005 18:10:38 -0800
ISS
1 25544U 98067A 05032.97722396 .00011400 00000-0 95434-4 0 7213
2 25544 51.6446 232.2870 0009663 56.0652 97.1993 15.70492140354429
PCSAT1 26931U 01043C 05032.08423060 .00000210 00000-0 11454-3 0 96012
26931 67.0530 218.3213 0007324 262.3558 97.6718 14.29360200174312
----
Via the sarex mailing list at AMSAT.ORG courtesy of AMSAT-NA.
To unsubscribe, send "unsubscribe sarex" to Majordomo@amsat.org
AMSAT Home